Simultaneous Nadir Overpasses (SNOs) Predictions

Prediction of SNOs between GOES-17 and NOAA-19 Satellite Orbit:

Table of predicted SNOs for the next 14.0 days since TLE Epoch: 2/24/2024
Index Date Time (GOES-17) GOES-17 Lat,Lon NOAA-19 Lat,Lon Distance(km) Time Diff (sec)
1 02/25/2024 16:10:39 -0.00,-104.68 0.49,-106.74 235.17 80
2 02/26/2024 16:01:08 0.00,-104.68 -0.22,-103.77 103.69 80
3 02/27/2024 15:48:55 0.00,-104.68 -0.88,-100.80 442.55 80
4 02/29/2024 04:20:49 0.00,-104.67 -0.88,-108.45 431.69 80
5 03/01/2024 04:08:37 0.00,-104.67 -0.17,-105.49 93.19 80
6 03/02/2024 03:53:45 0.00,-104.67 0.48,-102.52 245.22 80
7 03/04/2024 16:13:26 -0.01,-104.67 0.56,-107.21 289.97 80
8 03/05/2024 16:03:54 -0.02,-104.66 -0.11,-104.24 48.36 80
9 03/06/2024 15:51:41 -0.02,-104.66 -0.78,-101.27 386.74 80
10 03/08/2024 04:23:36 0.02,-104.65 -0.97,-108.93 488.16 80
